FW0170 Weather Reports


time (UTC)temp
F
wind
direction
speed
knots
gust
knots
rain 1hr
in
rain 24hr
in
rain mn
in
humidity
%
barometer
mb
20260502210506 55 211 0.0 1.7 0.00 0.06 0.06 79 1013.2
20260502210005 55 10 0.0 1.7 0.00 0.06 0.06 79 1013.2
20260502205505 55 114 0.0 0.0 0.00 0.06 0.06 79 1013.2
20260502205006 55 62 0.0 0.0 0.00 0.06 0.06 78 1013.2
20260502204506 55 218 0.0 0.0 0.00 0.06 0.06 78 1013.2
20260502204006 55 70 0.0 0.0 0.00 0.06 0.06 78 1013.2
20260502203505 55 228 0.0 0.0 0.00 0.06 0.06 78 1013.2
20260502203005 55 47 0.0 0.0 0.00 0.06 0.06 77 1013.2
20260502202505 55 133 0.0 0.0 0.00 0.06 0.06 77 1013.5
20260502201505 55 36 0.0 1.7 0.00 0.06 0.06 78 1004.7
20260502201006 55 47 0.0 1.7 0.00 0.06 0.06 78 1004.7
20260502200506 55 47 0.0 1.7 0.00 0.06 0.06 78 1004.7
20260502195509 55 66 0.0 1.7 0.00 0.06 0.06 78 1004.7
20260502195005 55 125 0.0 0.0 0.00 0.06 0.06 78 1004.8
20260502194505 55 340 0.0 0.0 0.00 0.06 0.06 79 1005.1
20260502194007 55 172 0.0 1.7 0.00 0.06 0.06 79 1004.7
20260502193005 55 165 0.0 1.7 0.00 0.06 0.06 78 1005.1
20260502192505 55 95 0.0 1.7 0.00 0.06 0.06 78 1004.7
20260502191506 55 113 0.0 1.7 0.00 0.06 0.06 78 1005.1
20260502191006 55 36 0.0 1.7 0.00 0.06 0.06 78 1004.7
20260502190506 56 114 0.9 1.7 0.00 0.06 0.06 78 1004.7
20260502190005 56 308 0.0 0.0 0.00 0.06 0.06 77 1004.7
20260502185506 56 158 0.0 0.0 0.00 0.06 0.06 77 1004.7
20260502185005 56 198 0.0 1.7 0.00 0.06 0.06 77 1004.7
20260502184005 56 177 0.0 0.0 0.00 0.06 0.06 77 1004.7
20260502183006 56 121 0.0 1.7 0.00 0.06 0.06 77 1004.7
20260502182505 56 176 0.0 1.7 0.00 0.06 0.06 77 1004.7
20260502182005 56 165 0.0 0.0 0.00 0.06 0.06 77 1004.7
20260502180518 56 122 0.0 4.3 0.00 0.06 0.06 77 1004.7
20260502170507 58 338 0.0 0.0 0.00 0.06 0.06 76 1005.1
20260502164012 58 100 0.9 1.7 0.00 0.06 0.06 76 1004.7
20260502163514 58 64 0.9 1.7 0.00 0.06 0.06 76 1005.1
20260502162505 59 197 0.0 0.0 0.00 0.06 0.06 76 1005.1
20260502162005 59 156 0.0 0.0 0.00 0.06 0.06 75 1005.1
20260502161505 59 165 0.0 4.3 0.00 0.06 0.06 75 1004.7
20260502161005 59 64 0.9 4.3 0.00 0.06 0.06 74 1005.1
20260502160505 59 72 0.0 0.0 0.00 0.06 0.06 74 1005.1
20260502152006 58 24 0.0 1.7 0.00 0.06 0.06 74 1005.4
20260502151005 59 130 1.7 4.3 0.00 0.06 0.06 74 1005.4
20260502150505 59 85 2.6 4.3 0.00 0.06 0.06 74 1005.4
20260502130505 66 202 1.7 4.3 0.00 0.06 0.06 60 1006.1
20260502123505 64 193 5.2 8.7 0.00 0.06 0.06 58 1006.1
20260502123006 64 290 4.3 7.0 0.00 0.06 0.06 59 1006.1
20260502122005 64 213 0.9 4.3 0.00 0.06 0.06 63 1006.1
20260502121505 64 222 0.9 1.7 0.00 0.06 0.06 63 1006.1
20260502120505 65 260 2.6 8.7 0.00 0.06 0.06 63 1006.1
20260502115505 65 299 1.7 7.0 0.00 0.06 0.06 62 1006.1
20260502115006 65 285 1.7 4.3 0.00 0.06 0.06 61 1006.4
20260502114505 65 185 1.7 8.7 0.00 0.06 0.06 61 1006.4
20260502113506 64 206 1.7 7.0 0.00 0.06 0.06 64 1006.1
20260502113005 64 298 5.2 7.0 0.00 0.06 0.06 63 1006.4
20260502112505 64 303 2.6 4.3 0.00 0.06 0.06 63 1006.4
20260502112005 64 303 1.7 4.3 0.00 0.06 0.06 63 1006.4
20260502111505 64 309 1.7 4.3 0.00 0.06 0.06 63 1006.4
20260502111008 64 329 1.7 4.3 0.00 0.06 0.06 65 1006.4
20260502110005 63 236 2.6 11.3 0.00 0.06 0.06 65 1006.1
20260502105505 63 267 6.1 11.3 0.00 0.06 0.06 65 1006.1
20260502105005 63 221 0.9 7.0 0.00 0.06 0.06 66 1006.1
20260502104505 63 301 5.2 7.0 0.00 0.06 0.06 66 1006.1
20260502104005 63 294 2.6 7.0 0.00 0.06 0.06 66 1006.4
20260502103506 62 293 0.9 4.3 0.00 0.06 0.06 67 1006.4
20260502103015 62 309 1.7 4.3 0.00 0.06 0.06 66 1006.4
20260502102505 62 215 2.6 7.0 0.00 0.06 0.06 66 1006.4
20260502102005 61 265 4.3 7.0 0.00 0.06 0.06 67 1006.4
20260502101506 61 287 4.3 4.3 0.00 0.06 0.06 67 1006.4
20260502101005 61 287 4.3 4.3 0.00 0.06 0.06 67 1006.4
20260502091505 60 297 4.3 11.3 0.00 0.06 0.06 71 1006.8
20260502091005 60 101 2.6 4.3 0.00 0.06 0.06 71 1006.4
20260502090505 59 325 2.6 4.3 0.00 0.06 0.06 71 1006.8
20260502071506 54 213 4.3 8.7 0.00 0.06 0.06 79 1006.4
20260502071005 53 246 5.2 8.7 0.00 0.06 0.06 79 1006.4
20260502070505 53 214 5.2 8.7 0.00 0.06 0.06 81 1006.8
20260502070005 52 295 2.6 7.0 0.00 0.06 0.06 82 1006.4
20260502064505 51 235 2.6 7.0 0.00 0.06 0.06 84 1006.4
20260502064006 51 207 2.6 7.0 0.00 0.06 0.06 85 1006.4
20260502063505 51 204 2.6 4.3 0.00 0.06 0.06 85 1006.8
20260502063005 50 278 1.7 11.3 0.00 0.06 0.06 86 1006.4
20260502062505 50 239 5.2 11.3 0.00 0.06 0.06 87 1006.4
20260502062005 50 249 2.6 4.3 0.00 0.06 0.06 87 1006.4
20260502061005 50 217 5.2 11.3 0.00 0.06 0.06 87 1006.8
20260502060505 50 234 5.2 11.3 0.00 0.06 0.06 87 1006.8
20260502060005 50 209 4.3 7.0 0.00 0.06 0.06 87 1006.8
20260502055505 50 198 2.6 7.0 0.00 0.06 0.06 88 1006.8
20260502054504 49 202 0.9 7.0 0.00 0.06 0.06 88 1006.8
20260502054005 49 227 1.7 7.0 0.00 0.06 0.06 89 1006.8
20260502053505 49 188 2.6 7.0 0.00 0.06 0.06 90 1006.4
20260502053005 48 227 2.6 4.3 0.00 0.06 0.06 90 1006.4
20260502052505 48 171 0.9 1.7 0.00 0.06 0.06 91 1006.8
20260502052005 48 212 0.0 1.7 0.00 0.06 0.06 91 1007.1
20260502051505 48 241 0.9 4.3 0.00 0.06 0.06 91 1007.1
20260502051005 48 233 1.7 4.3 0.00 0.06 0.06 91 1006.9
20260502050505 48 231 0.9 4.3 0.00 0.06 0.06 91 1006.8
20260502050005 49 229 0.9 7.0 0.00 0.06 0.06 91 1006.9
20260502045505 49 218 1.7 7.0 0.00 0.06 0.06 91 1007.0
20260502045005 49 206 1.7 4.3 0.00 0.06 0.06 91 1006.8
20260502044505 49 233 0.9 4.3 0.00 0.06 0.06 91 1007.1
20260502044005 49 247 1.7 4.3 0.00 0.06 0.06 92 1006.8
20260502043506 49 254 1.7 4.3 0.00 0.06 0.06 92 1007.1
20260502043005 49 223 1.7 4.3 0.00 0.06 0.06 92 1006.8
20260502041505 49 222 0.9 1.7 0.00 0.06 0.06 92 1007.1
20260502041005 49 197 0.9 1.7 0.00 0.06 0.06 92 1007.1
20260502040005 50 232 0.9 1.7 0.00 0.06 0.06 92 1007.1
20260502035005 50 211 0.0 1.7 0.00 0.06 0.06 92 1007.1
20260502034505 50 214 0.9 1.7 0.00 0.06 0.06 92 1007.1
20260502033506 50 208 0.0 1.7 0.00 0.06 0.06 92 1007.1
20260502033005 50 256 0.0 1.7 0.00 0.06 0.06 93 1007.1
20260502032505 50 217 0.9 1.7 0.00 0.06 0.06 93 1007.1
20260502032006 50 257 0.0 1.7 0.00 0.06 0.06 93 1007.1
20260502031505 51 208 0.0 1.7 0.00 0.06 0.06 93 1007.1
20260502031006 51 220 0.0 1.7 0.00 0.06 0.06 93 1007.1
20260502030505 51 233 0.0 1.7 0.00 0.06 0.06 93 1007.1
20260502030005 51 269 0.9 1.7 0.00 0.06 0.06 93 1007.1
20260502025505 51 228 0.0 0.0 0.00 0.06 0.06 93 1007.5
20260502025005 51 281 0.0 1.7 0.00 0.06 0.06 93 1007.5
20260502024005 52 155 0.0 1.7 0.00 0.06 0.06 92 1007.5
20260502023505 52 202 0.0 1.7 0.00 0.06 0.06 92 1007.5
20260502023005 52 238 0.9 1.7 0.00 0.06 0.06 93 1007.5
20260502022505 53 215 0.0 1.7 0.00 0.06 0.06 93 1007.5
20260502022005 53 245 0.0 1.7 0.00 0.06 0.06 92 1007.8
20260502021505 53 218 0.0 1.7 0.00 0.06 0.06 92 1007.5
20260502021005 53 241 0.0 0.0 0.00 0.06 0.06 92 1007.5
20260502020505 53 224 0.0 0.0 0.00 0.06 0.06 92 1007.6
20260502015505 53 269 0.0 0.0 0.00 0.06 0.06 92 1007.8
20260502015006 53 264 0.0 0.0 0.00 0.06 0.06 92 1007.8
20260502014505 53 251 0.0 0.0 0.00 0.06 0.06 92 1007.8
20260502013505 53 205 0.0 0.0 0.00 0.06 0.06 91 1007.8
20260502013006 53 302 0.0 0.0 0.00 0.06 0.06 91 1008.1
20260502012505 53 218 0.0 0.0 0.00 0.06 0.06 91 1008.1
20260502012005 53 182 0.0 0.0 0.00 0.06 0.06 91 1008.1
20260502011505 53 223 0.0 0.0 0.02 0.06 0.06 91 1008.1
20260502011005 53 297 0.0 0.0 0.04 0.06 0.06 90 1008.1
20260502010506 54 109 0.0 0.0 0.04 0.06 0.06 90 1008.1
20260502010005 54 299 0.0 0.0 0.05 0.06 0.06 90 1008.5
20260502005505 54 283 0.0 0.0 0.06 0.06 0.06 90 1008.5
20260502004505 54 273 0.0 0.0 0.06 0.06 0.06 89 1008.5
20260502004005 54 244 0.0 0.0 0.06 0.06 0.06 89 1008.5
20260502003505 54 72 0.0 0.0 0.06 0.06 0.06 88 1008.5
20260502003005 55 207 0.0 0.0 0.06 0.06 0.06 88 1008.5
20260502002505 55 285 0.0 0.0 0.06 0.06 0.06 88 1008.5
20260502002005 55 213 0.0 0.0 0.06 0.06 0.06 87 1008.8
20260502001005 55 217 0.0 1.7 0.02 0.02 0.02 86 1008.5
20260502000505 55 291 0.9 1.7 0.02 0.02 0.02 85 1008.5
20260501235504 56 302 0.9 1.7 0.00 0.00 0.00 82 1008.5
20260501235005 56 212 0.0 0.0 0.00 0.00 0.00 81 1008.5
20260501234505 56 252 0.0 1.7 0.00 0.00 0.00 81 1008.8
20260501234005 56 224 0.0 1.7 0.00 0.00 0.00 81 1008.8
20260501233505 56 259 0.0 0.0 0.00 0.00 0.00 80 1008.5
20260501233005 56 200 0.0 1.7 0.00 0.00 0.00 80 1008.8
20260501232504 56 263 0.0 1.7 0.00 0.00 0.00 80 1008.5
20260501231505 56 296 0.9 1.7 0.00 0.00 0.00 79 1008.8
20260501231005 56 276 0.0 1.7 0.00 0.00 0.00 79 1008.8
20260501230506 56 297 0.9 1.7 0.00 0.00 0.00 78 1008.8
20260501225505 57 266 0.0 1.7 0.00 0.00 0.00 77 1008.6
20260501225005 57 283 0.0 1.7 0.00 0.00 0.00 77 1008.5
20260501224505 57 268 0.0 1.7 0.00 0.00 0.00 77 1008.5
20260501223505 57 247 0.0 1.7 0.00 0.00 0.00 77 1008.5
20260501223005 57 302 0.0 1.7 0.00 0.00 0.00 77 1008.5
20260501222505 57 304 0.9 4.3 0.00 0.00 0.00 77 1008.8
20260501222005 57 307 1.7 4.3 0.00 0.00 0.00 77 1008.8
20260501221504 57 302 0.0 1.7 0.00 0.00 0.00 77 1008.5
20260501221005 57 288 0.0 1.7 0.00 0.00 0.00 77 1008.5
20260501220505 57 277 0.9 1.7 0.00 0.00 0.00 77 1008.5
20260501220006 57 233 0.0 0.0 0.00 0.00 0.00 76 1008.5
20260501215505 57 211 0.0 1.7 0.00 0.00 0.00 76 1008.5
20260501215005 57 287 0.0 1.7 0.00 0.00 0.00 76 1008.8
20260501213505 57 248 0.0 0.0 0.00 0.00 0.00 76 1008.8
20260501212505 58 305 0.0 1.7 0.00 0.00 0.00 75 1008.8
20260501212005 58 292 0.9 4.3 0.00 0.00 0.00 75 1008.8
20260501211505 58 312 1.7 4.3 0.00 0.00 0.00 75 1008.8
20260501211005 58 288 1.7 4.3 0.00 0.00 0.00 74 1008.8